"startDT [UTC]","vpos","CH4 [ppm]","stdev(CH4) [ppm]","CO2 [ppm]","stdev(CO2) [ppm]","H2O_reported [%]","stdev(H2O_reported)","CavityPressure [torr]","CavityTemp [C]","OutletValve","CH4_dry [ppm]","CO2_dry [ppm]","DasTemp [C]","EtalonTemp [C]","WarmBoxTemp [C]","MPVPosition","T_ECpre [C]","T_EC1 [C]","T_EC2 [C]","p_inlet [hPa]","p_in [hPa]","p_out [hPa]","T_inlet [C]","RH_inlet [%]","dwpt_inlet [C]","T_vent [C]","RH_vent [%]","dwpt_vent [C]","flow_vent [l min-1]","flow_inlet [l min-1]","dwpt_sample [C]","T_room [C]"
2016-08-15 00:48:00,0.0,,,,,,,,,,,,,,,,,,0.12,-272.64,-272.71,-23,572,-939,13.6,71.9,8.6,13.6,59.2,5.7,5.73,1.66,0.8,12.7
2016-08-15 00:49:00,0.0,,,,,,,,,,,,,,,,,,0.12,-272.69,-272.74,-21,572,-939,13.7,72.4,8.8,13.7,60.9,6.2,5.73,2.17,0.8,12.9
2016-08-15 00:50:00,0.0,,,,,,,,,,,,,,,,,,0.11,-272.71,-272.76,-21,570,-939,13.8,72.6,9.0,13.8,61.3,6.4,5.73,2.75,0.8,13.2
2016-08-15 00:51:00,0.0,,,,,,,,,,,,,,,,,,0.12,-272.70,-272.77,-25,570,-939,13.9,72.8,9.1,13.8,61.5,6.5,5.73,1.82,0.8,13.6
2016-08-15 00:52:00,0.0,,,,,,,,,,,,,,,,,,0.11,-272.73,-272.79,-21,570,-939,14.0,72.2,9.0,13.9,61.5,6.6,5.73,2.51,1.3,13.9
2016-08-15 00:53:00,0.0,,,,,,,,,,,,,,,,,,0.11,-272.74,-272.80,-23,571,-939,14.0,72.3,9.1,14.0,61.5,6.7,5.73,2.24,2.5,14.4
2016-08-15 00:54:00,0.0,,,,,,,,,,,,,,,,,,0.11,-272.74,-272.80,-23,570,-939,14.1,72.0,9.1,14.0,61.5,6.8,5.73,2.17,2.5,14.7
2016-08-15 00:55:00,0.0,,,,,,,,,,,,,,,,,,0.11,-272.75,-272.81,-22,570,-939,14.2,72.8,9.4,14.1,61.5,6.8,5.73,2.18,2.5,15.1
2016-08-15 00:56:00,0.0,,,,,,,,,,,,,,,,,,0.11,-272.76,-272.82,-21,569,-938,14.2,72.7,9.4,14.1,61.5,6.8,5.73,2.21,2.6,15.5
2016-08-15 00:57:00,0.0,,,,,,,,,,,,,,,,,,0.11,-272.77,-272.82,-21,569,-938,14.3,72.4,9.4,14.2,61.5,6.9,5.73,2.25,2.6,15.9
2016-08-15 00:58:00,0.0,,,,,,,,,,,,,,,,,,0.11,-272.76,-272.82,-21,569,-939,14.3,71.8,9.3,14.2,61.5,6.9,5.73,2.29,2.6,16.3
2016-08-15 00:59:00,0.0,,,,,,,,,,,,,,,,,,0.11,-272.77,-272.84,-21,569,-939,14.4,71.6,9.3,14.3,61.5,7.0,5.73,2.23,2.7,16.6
2016-08-15 01:00:00,3.0,,,,,,,,,,,,,,,,,,0.11,-272.77,-272.84,-20,546,-939,14.4,72.1,9.5,14.3,61.5,7.0,5.73,2.14,2.7,16.9
2016-08-15 01:01:00,3.0,,,,,,,,,,,,,,,,,,0.11,-272.76,-272.83,-20,548,-940,14.4,71.8,9.4,14.3,61.5,7.0,5.73,2.16,2.8,17.3
2016-08-15 01:02:00,3.0,,,,,,,,,,,,,,,,,,0.10,-272.77,-272.83,-21,550,-940,14.5,70.8,9.3,14.4,61.5,7.1,5.73,2.36,2.9,17.6
2016-08-15 01:03:00,3.0,,,,,,,,,,,,,,,,,,0.10,-272.78,-272.85,-20,552,-941,14.6,72.0,9.6,14.4,61.5,7.1,5.73,2.11,2.9,17.8
2016-08-15 01:04:00,3.0,,,,,,,,,,,,,,,,,,0.25,-271.58,-266.92,-18,555,-941,14.6,71.0,9.4,14.5,61.5,7.2,5.42,2.36,-3.7,18.1
2016-08-15 01:05:00,3.0,,,,,,,,,,,,,,,,,,0.11,-272.78,-272.85,-19,557,-942,14.7,70.6,9.4,14.6,61.5,7.2,5.73,2.18,3.1,18.4
2016-08-15 01:06:00,3.0,,,,,,,,,,,,,,,,,,0.10,-272.80,-272.86,-16,559,-942,14.8,70.5,9.5,14.6,61.5,7.3,5.73,2.22,3.1,18.6
2016-08-15 01:07:00,3.0,,,,,,,,,,,,,,,,,,0.10,-272.78,-272.85,-17,561,-943,14.9,71.8,9.8,14.8,61.6,7.5,5.73,2.13,3.2,18.9
2016-08-15 01:08:00,3.0,,,,,,,,,,,,,,,,,,0.10,-272.79,-272.85,-16,562,-943,15.0,70.9,9.7,14.8,61.6,7.5,5.73,2.30,3.3,19.1
2016-08-15 01:09:00,3.0,,,,,,,,,,,,,,,,,,0.10,-272.79,-272.85,-17,564,-944,15.1,70.6,9.8,14.9,61.7,7.6,5.73,2.03,3.4,19.3
2016-08-15 01:10:00,3.0,,,,,,,,,,,,,,,,,,0.10,-272.79,-272.85,-15,566,-944,15.2,69.6,9.6,15.0,61.6,7.7,5.73,2.26,3.5,19.5
2016-08-15 01:11:00,3.0,,,,,,,,,,,,,,,,,,0.10,-272.79,-272.84,-16,560,-945,15.3,69.8,9.8,15.1,61.6,7.8,5.73,2.19,3.6,19.7
2016-08-15 01:12:00,3.0,,,,,,,,,,,,,,,,,,0.10,-272.79,-272.85,-14,495,-931,15.4,69.9,9.9,15.2,61.6,7.9,5.73,2.04,3.6,19.9
2016-08-15 01:13:00,3.0,,,,,,,,,,,,,,,,,,0.10,-272.80,-272.85,-13,494,-930,15.5,70.5,10.1,15.3,61.8,8.0,5.73,2.23,3.7,20.1
2016-08-15 01:14:00,3.0,,,,,,,,,,,,,,,,,,0.10,-272.79,-272.85,-14,494,-931,15.6,69.9,10.1,15.4,61.7,8.1,5.73,2.21,3.8,20.3
2016-08-15 01:15:00,3.0,,,,,,,,,,,,,,,,,,0.10,-272.79,-272.86,-13,494,-932,15.7,69.7,10.2,15.5,61.7,8.2,5.73,2.04,3.9,20.5
2016-08-15 01:16:00,3.0,,,,,,,,,,,,,,,,,,0.10,-272.79,-272.87,-12,494,-933,15.8,68.9,10.1,15.6,61.8,8.3,5.73,2.11,4.0,20.7
2016-08-15 01:17:00,3.0,,,,,,,,,,,,,,,,,,0.10,-272.79,-272.86,-10,494,-933,15.9,68.4,10.1,15.7,62.0,8.4,5.73,2.22,4.0,20.9
2016-08-15 01:18:00,3.0,1.87583,0.00075,398.062,0.116,0.0095,0.0020,140.009,44.898,31393.06934,1.88075,398.129,28.869,45.063,45.039,0.00,0.10,-272.78,-272.86,-2,493,-934,16.0,69.7,10.4,15.8,62.5,8.7,5.73,1.73,4.1,21.1
2016-08-15 01:19:00,3.0,1.87373,0.00081,397.604,0.117,0.0093,0.0026,140.010,45.009,31494.52348,1.87400,397.654,29.143,45.104,45.063,0.00,0.10,-272.80,-272.86,-3,493,-934,16.1,69.8,10.6,15.9,62.5,8.7,5.73,1.88,4.1,21.2
2016-08-15 01:20:00,3.0,1.87242,0.00056,397.409,0.049,0.0091,0.0022,140.005,45.097,31601.58712,1.87261,397.455,29.565,45.132,45.075,0.00,0.10,-272.81,-272.87,-4,493,-935,16.2,68.6,10.4,16.0,62.6,8.9,5.73,1.98,4.2,21.4
2016-08-15 01:21:00,3.0,1.87150,0.00047,397.366,0.036,0.0087,0.0016,140.005,45.123,31677.74229,1.87170,397.408,29.990,45.136,45.070,0.00,0.10,-272.79,-272.86,-2,493,-936,16.3,68.2,10.5,16.1,62.4,8.9,5.73,1.69,4.3,21.6
2016-08-15 01:22:00,3.0,1.87150,0.00039,397.371,0.045,0.0066,0.0022,140.004,45.109,31724.40449,1.87161,397.403,30.415,45.127,45.056,0.00,0.10,-272.80,-272.85,-3,493,-936,16.5,67.9,10.5,16.2,62.4,9.0,5.73,2.03,4.4,21.7
2016-08-15 01:23:00,3.0,1.87190,0.00048,397.455,0.028,0.0066,0.0022,140.002,45.072,31746.98393,1.87199,397.484,30.794,45.113,45.040,0.00,0.10,-272.80,-272.87,-4,492,-937,16.6,65.5,10.1,16.3,62.4,9.1,5.73,1.74,4.5,21.9
2016-08-15 01:24:00,3.0,1.87237,0.00032,397.541,0.038,0.0062,0.0022,139.999,45.027,31752.96509,1.87249,397.571,31.141,45.098,45.025,0.00,0.10,-272.80,-272.86,-3,492,-937,16.7,65.1,10.1,16.4,62.4,9.2,5.73,1.89,4.5,22.0
2016-08-15 01:25:00,2.0,1.84706,0.01111,390.360,2.771,0.0457,0.0655,140.038,44.985,32295.81447,1.84888,390.704,31.473,45.085,45.013,0.00,0.10,-272.79,-272.85,-4,596,-937,16.8,65.0,10.2,16.5,62.4,9.3,5.73,1.87,4.6,22.2
2016-08-15 01:26:00,2.0,1.84254,0.00044,389.590,0.031,0.0236,0.0018,140.001,44.956,32328.13163,1.84297,389.700,31.761,45.075,45.004,0.00,0.10,-272.80,-272.86,-4,598,-937,17.0,64.4,10.2,16.6,62.2,9.4,5.73,1.91,4.6,22.4
2016-08-15 01:27:00,2.0,1.84253,0.00030,389.644,0.026,0.0211,0.0027,139.998,44.939,32325.41702,1.84290,389.742,31.995,45.067,44.997,0.00,0.10,-272.80,-272.86,-4,598,-938,17.1,64.0,10.2,16.8,62.4,9.5,5.73,1.85,4.7,22.5
2016-08-15 01:28:00,2.0,1.84306,0.00050,389.699,0.035,0.0161,0.0023,140.000,44.930,32316.04617,1.84336,389.774,32.214,45.063,44.994,0.00,0.10,-272.79,-272.85,-4,598,-938,17.2,64.7,10.5,16.9,62.2,9.6,5.73,1.78,4.8,22.7
2016-08-15 01:29:00,2.0,1.84355,0.00034,389.697,0.039,0.0137,0.0020,139.999,44.930,32309.84859,1.84377,389.763,32.432,45.061,44.993,0.00,0.10,-272.80,-272.86,-4,598,-938,17.3,64.0,10.4,17.0,62.3,9.7,5.73,1.76,4.9,22.8
2016-08-15 01:30:00,2.0,1.84408,0.00036,389.701,0.025,0.0093,0.0023,139.998,44.936,32301.75767,1.84423,389.745,32.660,45.060,44.993,0.00,0.10,-272.81,-272.88,-4,598,-939,17.5,63.8,10.5,17.1,62.1,9.8,5.73,1.86,4.9,23.0
2016-08-15 01:31:00,2.0,1.84418,0.00031,389.715,0.026,0.0078,0.0020,139.998,44.945,32295.08756,1.84432,389.751,32.870,45.060,44.993,0.00,0.10,-272.80,-272.86,-4,598,-939,17.6,63.4,10.5,17.3,62.1,9.9,5.73,1.96,5.0,23.1
2016-08-15 01:32:00,2.0,1.84421,0.00041,389.684,0.026,0.0069,0.0022,139.999,44.956,32295.94507,1.84431,389.717,33.057,45.061,44.994,0.00,0.10,-272.79,-272.86,-4,598,-940,17.7,62.3,10.4,17.3,62.0,10.0,5.73,1.96,5.0,23.2
2016-08-15 01:33:00,2.0,1.84452,0.00040,389.690,0.034,0.0055,0.0017,139.999,44.966,32298.32317,1.84464,389.716,33.242,45.062,44.995,0.00,0.10,-272.80,-272.87,-4,598,-940,17.8,62.4,10.5,17.5,62.1,10.1,5.73,1.83,5.1,23.4
2016-08-15 01:34:00,2.0,1.84435,0.00042,389.669,0.032,0.0047,0.0017,140.000,44.975,32302.47161,1.84442,389.692,33.426,45.063,44.996,0.00,0.10,-272.80,-272.87,-4,598,-940,18.0,61.4,10.4,17.6,62.1,10.3,5.73,1.72,5.2,23.5
2016-08-15 01:35:00,2.0,1.84448,0.00036,389.633,0.026,0.0046,0.0018,140.002,44.982,32307.02136,1.84458,389.654,33.592,45.064,44.997,0.00,0.10,-272.80,-272.85,-5,597,-941,18.1,61.0,10.5,17.7,62.1,10.4,5.73,1.84,5.3,23.6
2016-08-15 01:36:00,2.0,1.84483,0.00036,389.640,0.035,0.0045,0.0023,140.000,44.988,32308.66433,1.84487,389.660,33.745,45.065,44.998,0.00,0.10,-272.81,-272.86,-5,597,-941,18.2,60.5,10.4,17.8,61.9,10.4,5.73,2.00,5.3,23.8
2016-08-15 01:37:00,2.0,1.84487,0.00037,389.635,0.031,0.0034,0.0024,140.000,44.992,32311.80084,1.84495,389.652,33.897,45.066,44.999,0.00,0.10,-272.80,-272.87,-5,597,-942,18.4,60.4,10.5,17.9,62.0,10.6,5.73,1.87,5.4,23.9
2016-08-15 01:38:00,2.0,1.84482,0.00035,389.607,0.031,0.0038,0.0019,140.002,44.994,32315.33016,1.84491,389.623,34.045,45.067,45.000,0.00,0.10,-272.79,-272.85,-5,597,-942,18.5,59.9,10.5,18.1,61.9,10.6,5.73,1.70,5.4,24.0
2016-08-15 01:39:00,2.0,1.84499,0.00050,389.624,0.036,0.0025,0.0018,139.998,44.996,32316.20458,1.84501,389.637,34.190,45.067,45.000,0.00,0.10,-272.80,-272.86,-4,597,-942,18.6,59.7,10.6,18.1,61.9,10.7,5.73,1.88,5.5,24.2
2016-08-15 01:40:00,2.0,1.84515,0.00044,389.621,0.045,0.0024,0.0017,140.000,44.997,32317.71196,1.84520,389.632,34.334,45.067,45.000,0.00,0.10,-272.81,-272.87,-5,596,-943,18.7,59.7,10.7,18.2,61.9,10.8,5.73,2.00,5.6,24.3
2016-08-15 01:41:00,2.0,1.84482,0.00032,389.607,0.029,0.0029,0.0018,139.999,44.997,32321.00990,1.84487,389.619,34.465,45.068,45.000,0.00,0.10,-272.79,-272.86,-6,596,-943,18.8,59.4,10.8,18.4,62.0,11.0,5.73,1.73,5.6,24.4
2016-08-15 01:42:00,2.0,1.84478,0.00026,389.603,0.040,0.0030,0.0018,140.003,44.997,32321.89490,1.84483,389.617,34.595,45.068,45.000,0.00,0.10,-272.79,-272.85,-5,596,-943,19.0,58.4,10.6,18.5,61.9,11.0,5.73,1.79,5.7,24.6
2016-08-15 01:43:00,2.0,1.84482,0.00026,389.607,0.030,0.0025,0.0017,140.000,44.998,32321.61739,1.84486,389.619,34.730,45.068,45.001,0.00,0.10,-272.81,-272.87,-5,596,-943,19.1,56.8,10.3,18.6,62.1,11.2,5.73,2.02,5.7,24.7
2016-08-15 01:44:00,2.0,1.84503,0.00034,389.609,0.024,0.0023,0.0018,139.997,44.999,32319.82835,1.84507,389.620,34.857,45.068,45.001,0.00,0.10,-272.79,-272.86,-6,595,-944,19.2,56.8,10.4,18.7,62.0,11.3,5.73,1.74,5.8,24.8
2016-08-15 01:45:00,2.0,1.84502,0.00032,389.619,0.028,0.0021,0.0016,139.998,44.999,32320.55270,1.84506,389.629,34.987,45.068,45.001,0.00,0.10,-272.79,-272.85,-6,595,-944,19.3,56.9,10.6,18.8,62.0,11.4,5.73,1.79,5.9,24.9
2016-08-15 01:46:00,2.0,1.84527,0.00048,389.600,0.031,0.0022,0.0017,140.002,44.999,32322.84028,1.84531,389.610,35.112,45.068,45.001,0.00,0.10,-272.81,-272.87,-5,595,-944,19.4,57.0,10.7,18.9,61.9,11.4,5.73,2.01,5.9,25.0
2016-08-15 01:47:00,2.0,1.84514,0.00041,389.595,0.029,0.0011,0.0019,139.998,45.000,32323.62954,1.84516,389.601,35.217,45.068,45.001,0.00,0.10,-272.80,-272.87,-6,595,-944,19.5,56.1,10.6,19.0,62.0,11.5,5.73,1.69,6.0,25.1
2016-08-15 01:48:00,2.0,1.84527,0.00031,389.584,0.023,0.0017,0.0017,140.001,45.000,32325.79371,1.84531,389.591,35.329,45.068,45.000,0.00,0.10,-272.80,-272.86,-7,595,-945,19.7,55.2,10.4,19.1,61.9,11.6,5.73,1.89,6.0,25.2
2016-08-15 01:49:00,2.0,1.84549,0.00033,389.608,0.040,0.0020,0.0017,139.997,45.000,32325.06336,1.84551,389.619,35.451,45.068,45.001,0.00,0.10,-272.79,-272.86,-6,594,-945,19.8,54.9,10.4,19.2,61.7,11.7,5.73,1.92,6.1,25.4
2016-08-15 01:50:00,4.0,1.77485,0.02782,370.406,7.808,0.0074,0.0077,139.954,45.001,31961.69837,1.77765,370.792,35.569,45.068,45.001,0.00,0.10,-272.80,-272.86,-7,539,-946,19.9,54.0,10.3,19.3,61.8,11.8,5.73,1.74,6.1,25.5
2016-08-15 01:51:00,4.0,1.76315,0.00031,367.718,0.049,0.0021,0.0017,140.001,45.001,31962.18681,1.76319,367.726,35.679,45.068,45.001,0.00,0.10,-272.80,-272.85,-8,538,-946,20.0,54.1,10.4,19.4,61.7,11.9,5.73,2.02,6.2,25.6
2016-08-15 01:52:00,4.0,1.76289,0.00025,367.720,0.026,0.0031,0.0013,140.002,45.001,31950.85412,1.76295,367.734,35.792,45.068,45.001,0.00,0.10,-272.79,-272.85,-6,537,-946,20.1,53.5,10.4,19.5,61.7,12.0,5.73,1.70,6.2,25.7
2016-08-15 01:53:00,4.0,1.76293,0.00041,367.721,0.026,0.0036,0.0011,140.002,45.001,31939.57107,1.76297,367.737,35.908,45.068,45.000,0.00,0.10,-272.80,-272.86,-7,536,-946,20.2,53.6,10.5,19.6,61.7,12.0,5.73,1.92,6.2,25.8
2016-08-15 01:54:00,4.0,1.76325,0.00024,367.703,0.029,0.0047,0.0014,139.998,45.001,31928.29489,1.76334,367.723,36.017,45.068,45.000,0.00,0.10,-272.79,-272.86,-8,535,-946,20.3,51.8,10.1,19.7,61.7,12.1,5.73,1.84,6.3,25.9
2016-08-15 01:55:00,4.0,1.76317,0.00019,367.692,0.034,0.0037,0.0024,140.001,45.001,31926.59339,1.76324,367.708,36.101,45.068,45.000,0.00,0.10,-272.78,-272.86,-6,534,-946,20.4,51.7,10.1,19.8,61.4,12.1,5.73,1.77,6.3,26.0
2016-08-15 01:56:00,4.0,1.76315,0.00036,367.703,0.025,0.0031,0.0018,139.999,45.001,31921.65492,1.76320,367.716,36.196,45.068,45.000,0.00,0.10,-272.79,-272.86,-8,533,-947,20.5,52.3,10.4,19.9,61.3,12.2,5.73,1.97,6.4,26.1
2016-08-15 01:57:00,4.0,1.76342,0.00027,367.730,0.021,0.0028,0.0027,139.999,45.001,31917.73278,1.76344,367.742,36.281,45.068,45.001,0.00,0.10,-272.78,-272.86,-7,533,-947,20.6,51.8,10.3,20.0,61.2,12.3,5.73,1.67,6.4,26.2
2016-08-15 01:58:00,4.0,1.76320,0.00034,367.713,0.033,0.0026,0.0018,140.001,45.001,31916.21654,1.76326,367.726,36.370,45.068,45.001,0.00,0.10,-272.79,-272.86,-7,533,-947,20.7,51.0,10.2,20.1,61.1,12.3,5.73,2.01,6.5,26.3
2016-08-15 01:59:00,4.0,1.76317,0.00040,367.696,0.031,0.0022,0.0017,140.000,45.001,31914.12187,1.76321,367.705,36.465,45.068,45.001,0.00,0.10,-272.79,-272.85,-8,532,-947,20.8,50.5,10.1,20.2,61.0,12.4,5.73,1.65,6.5,26.4
2016-08-15 02:00:00,4.0,1.76313,0.00037,367.706,0.029,0.0021,0.0020,140.002,45.001,31913.75260,1.76317,367.714,36.552,45.068,45.001,0.00,0.10,-272.80,-272.86,-7,532,-947,20.9,50.3,10.1,20.3,61.0,12.5,5.73,2.01,6.5,26.5
2016-08-15 02:01:00,4.0,1.76314,0.00033,367.719,0.026,0.0015,0.0016,139.999,45.001,31910.93665,1.76315,367.726,36.650,45.068,45.001,0.00,0.10,-272.79,-272.86,-9,531,-947,21.0,50.7,10.4,20.4,60.8,12.5,5.73,1.66,6.6,26.6
2016-08-15 02:02:00,4.0,1.76345,0.00035,367.716,0.023,0.0016,0.0015,139.999,45.001,31907.60884,1.76349,367.723,36.739,45.068,45.001,0.00,0.10,-272.79,-272.85,-7,531,-947,21.1,50.7,10.4,20.5,60.7,12.6,5.73,1.99,6.6,26.7
2016-08-15 02:03:00,4.0,1.76336,0.00034,367.743,0.027,0.0008,0.0015,140.000,45.001,31907.06474,1.76337,367.746,36.829,45.068,45.000,0.00,0.10,-272.79,-272.86,-8,530,-948,21.2,51.3,10.7,20.6,60.7,12.7,5.73,1.67,6.6,26.8
2016-08-15 02:04:00,4.0,1.76342,0.00029,367.729,0.034,0.0005,0.0016,139.997,45.001,31907.41233,1.76343,367.731,36.906,45.068,45.000,0.00,0.10,-272.80,-272.86,-9,530,-948,21.3,50.0,10.4,20.7,60.6,12.8,5.73,1.99,6.7,26.9
2016-08-15 02:05:00,4.0,1.76334,0.00033,367.724,0.028,0.0012,0.0016,139.997,45.001,31905.84527,1.76336,367.729,36.982,45.068,45.000,0.00,0.10,-272.78,-272.85,-8,530,-948,21.3,49.2,10.2,20.7,60.5,12.8,5.73,1.68,6.7,26.9
2016-08-15 02:06:00,4.0,1.76326,0.00035,367.728,0.022,0.0012,0.0022,140.001,45.001,31908.43680,1.76328,367.734,37.070,45.068,45.000,0.00,0.10,-272.80,-272.85,-10,529,-948,21.4,49.1,10.3,20.9,60.6,13.0,5.73,1.98,6.7,27.0
2016-08-15 02:07:00,4.0,1.76337,0.00031,367.717,0.028,0.0007,0.0018,139.999,45.001,31907.08442,1.76338,367.721,37.160,45.068,45.000,0.00,0.10,-272.79,-272.85,-8,529,-948,21.5,48.7,10.3,20.9,60.4,13.0,5.73,1.67,6.8,27.1
2016-08-15 02:08:00,4.0,1.76333,0.00043,367.754,0.032,0.0007,0.0014,140.001,45.001,31908.13150,1.76334,367.756,37.233,45.068,45.001,0.00,0.10,-272.79,-272.85,-10,529,-948,21.6,48.6,10.3,21.1,60.3,13.1,5.73,1.98,6.8,27.2
2016-08-15 02:09:00,4.0,1.76321,0.00034,367.732,0.034,0.0014,0.0017,139.998,45.001,31907.46043,1.76324,367.738,37.311,45.068,45.000,0.00,0.10,-272.78,-272.86,-8,528,-948,21.7,48.4,10.3,21.2,60.4,13.2,5.73,1.66,6.8,27.3
2016-08-15 02:10:00,4.0,1.76293,0.00029,367.706,0.027,0.0006,0.0017,140.001,45.001,31909.90333,1.76296,367.708,37.392,45.068,45.000,0.00,0.10,-272.80,-272.86,-10,528,-948,21.8,48.3,10.4,21.2,60.2,13.2,5.73,2.00,6.9,27.3
2016-08-15 02:11:00,4.0,1.76303,0.00039,367.699,0.028,0.0013,0.0018,139.999,45.001,31909.50391,1.76301,367.706,37.480,45.067,45.000,0.00,0.10,-272.78,-272.86,-8,528,-948,21.8,49.2,10.7,21.3,60.1,13.2,5.73,1.65,6.9,27.4
2016-08-15 02:12:00,4.0,1.76311,0.00028,367.716,0.025,0.0007,0.0017,140.000,45.001,31908.80069,1.76314,367.719,37.536,45.067,45.000,0.00,0.10,-272.78,-272.85,-10,528,-949,21.9,47.5,10.2,21.4,60.2,13.4,5.73,1.99,7.0,27.5
2016-08-15 02:13:00,4.0,1.76265,0.00036,367.700,0.031,0.0005,0.0018,140.001,45.001,31911.96796,1.76269,367.703,37.599,45.067,45.000,0.00,0.10,-272.79,-272.86,-8,527,-949,22.0,48.1,10.5,21.5,60.0,13.4,5.73,1.67,7.0,27.6
2016-08-15 02:14:00,4.0,1.76279,0.00047,367.700,0.029,0.0007,0.0023,140.002,45.001,31912.91700,1.76278,367.703,37.664,45.068,45.001,0.00,0.10,-272.79,-272.86,-9,527,-949,22.1,47.7,10.4,21.5,60.0,13.4,5.73,1.94,7.0,27.7
2016-08-15 02:15:00,1.0,1.81922,0.01911,381.771,5.256,0.0594,0.0868,140.022,45.001,32267.48881,1.81826,381.769,37.746,45.067,45.000,0.00,0.10,-272.79,-272.85,-9,583,-948,22.2,46.8,10.2,21.6,59.9,13.5,5.73,1.80,7.0,27.7
2016-08-15 02:16:00,1.0,1.82401,0.00037,384.221,0.036,0.0264,0.0027,140.002,45.001,32293.20553,1.82446,384.342,37.808,45.067,45.000,0.00,0.10,-272.79,-272.85,-10,583,-948,22.2,47.1,10.4,21.7,59.8,13.5,5.73,1.88,7.1,27.8
2016-08-15 02:17:00,1.0,1.82405,0.00030,384.265,0.031,0.0223,0.0025,139.998,45.001,32299.12677,1.82445,384.365,37.874,45.067,45.000,0.00,0.10,-272.80,-272.86,-11,584,-948,22.3,47.1,10.5,21.8,59.7,13.6,5.73,1.83,7.1,27.9
2016-08-15 02:18:00,1.0,1.82415,0.00041,384.297,0.027,0.0169,0.0021,139.998,45.001,32306.13660,1.82445,384.377,37.929,45.068,45.000,0.00,0.10,-272.78,-272.85,-10,583,-948,22.4,46.9,10.5,21.9,59.5,13.6,5.73,1.78,7.1,27.9
2016-08-15 02:19:00,1.0,1.82440,0.00028,384.300,0.029,0.0119,0.0026,139.998,45.001,32310.34479,1.82461,384.354,37.981,45.067,45.000,0.00,0.10,-272.79,-272.84,-8,580,-948,22.5,46.7,10.5,22.0,59.4,13.7,5.73,1.92,7.2,28.0
2016-08-15 02:20:00,1.0,1.82447,0.00031,384.334,0.023,0.0089,0.0021,140.002,45.001,32314.78579,1.82462,384.376,38.052,45.067,45.000,0.00,0.10,-272.78,-272.85,-10,582,-949,22.6,46.5,10.5,22.0,59.3,13.7,5.73,1.69,7.2,28.1
2016-08-15 02:21:00,1.0,1.82456,0.00024,384.347,0.027,0.0072,0.0020,139.999,45.001,32315.57558,1.82471,384.380,38.122,45.067,45.001,0.00,0.10,-272.79,-272.85,-10,582,-949,22.7,46.8,10.7,22.1,59.2,13.8,5.73,1.98,7.2,28.2
2016-08-15 02:22:00,1.0,1.82485,0.00030,384.375,0.027,0.0055,0.0022,140.000,45.001,32317.88648,1.82493,384.399,38.199,45.067,45.000,0.00,0.10,-272.78,-272.84,-10,581,-949,22.7,45.9,10.5,22.2,59.1,13.8,5.73,1.66,7.2,28.2
2016-08-15 02:23:00,1.0,1.82473,0.00030,384.383,0.030,0.0043,0.0024,140.002,45.001,32322.84504,1.82482,384.403,38.262,45.067,45.000,0.00,0.10,-272.79,-272.85,-10,581,-949,22.8,46.1,10.6,22.3,59.0,13.9,5.73,1.97,7.3,28.3
2016-08-15 02:24:00,1.0,1.82491,0.00033,384.375,0.028,0.0031,0.0016,139.998,45.001,32321.92613,1.82497,384.389,38.326,45.067,45.000,0.00,0.10,-272.79,-272.85,-11,581,-949,22.9,45.9,10.6,22.3,58.9,13.9,5.73,1.74,7.3,28.4
2016-08-15 02:25:00,1.0,1.82477,0.00041,384.381,0.040,0.0028,0.0019,139.998,45.001,32324.63336,1.82482,384.395,38.390,45.067,45.000,0.00,0.10,-272.77,-272.86,-10,581,-949,22.9,45.3,10.4,22.4,58.8,13.9,5.73,1.83,7.3,28.4
2016-08-15 02:26:00,1.0,1.82469,0.00032,384.374,0.022,0.0028,0.0022,140.000,45.001,32325.98511,1.82474,384.387,38.442,45.067,45.000,0.00,0.10,-272.78,-272.85,-11,581,-949,23.0,45.2,10.4,22.5,58.7,14.0,5.73,1.91,7.4,28.5
2016-08-15 02:27:00,1.0,1.82465,0.00038,384.364,0.031,0.0014,0.0022,140.001,45.001,32327.51546,1.82468,384.371,38.493,45.067,45.000,0.00,0.10,-272.78,-272.86,-10,580,-949,23.1,44.9,10.4,22.5,58.5,14.0,5.73,1.68,7.4,28.5
2016-08-15 02:28:00,1.0,1.82476,0.00037,384.397,0.030,0.0005,0.0017,140.000,45.001,32328.87743,1.82475,384.398,38.522,45.067,45.000,0.00,0.10,-272.79,-272.85,-11,580,-949,23.1,44.9,10.5,22.6,58.3,14.0,5.73,1.99,7.4,28.6
2016-08-15 02:29:00,1.0,1.82495,0.00042,384.365,0.036,0.0016,0.0022,140.000,45.001,32329.39191,1.82500,384.373,38.562,45.067,45.000,0.00,0.10,-272.79,-272.84,-10,580,-949,23.2,44.6,10.5,22.7,58.0,14.0,5.73,1.69,7.4,28.7
2016-08-15 02:30:00,1.0,1.82486,0.00039,384.392,0.038,0.0017,0.0024,140.000,45.001,32329.50214,1.82486,384.399,38.599,45.067,45.000,0.00,0.10,-272.79,-272.85,-11,580,-949,23.3,44.4,10.5,22.7,57.7,14.0,5.73,1.87,7.4,28.7
2016-08-15 02:31:00,1.0,1.82478,0.00027,384.381,0.032,0.0011,0.0012,139.999,45.001,32329.20672,1.82481,384.386,38.646,45.067,45.001,0.00,0.10,-272.79,-272.85,-10,580,-949,23.4,44.2,10.5,22.8,57.4,14.0,5.73,1.86,7.5,28.8
2016-08-15 02:32:00,1.0,1.82474,0.00034,384.375,0.031,0.0009,0.0018,139.998,45.001,32329.76382,1.82477,384.380,38.702,45.068,45.001,0.00,0.10,-272.78,-272.85,-12,579,-949,23.4,43.8,10.4,22.9,57.1,13.9,5.73,1.70,7.5,28.8
2016-08-15 02:33:00,1.0,1.82485,0.00037,384.388,0.025,0.0007,0.0020,140.001,45.001,32332.22213,1.82485,384.391,38.755,45.068,45.001,0.00,0.10,-272.79,-272.85,-10,579,-949,23.5,44.3,10.6,23.0,56.8,13.9,5.73,1.98,7.5,28.8
2016-08-15 02:34:00,1.0,1.82472,0.00031,384.378,0.024,0.0016,0.0018,139.998,45.001,32334.46594,1.82475,384.387,38.820,45.067,45.000,0.00,0.10,-272.78,-272.85,-12,579,-950,23.6,43.8,10.6,23.0,56.4,13.9,5.73,1.66,7.5,28.9
2016-08-15 02:35:00,1.0,1.82483,0.00025,384.403,0.033,0.0007,0.0013,139.999,45.001,32333.45318,1.82486,384.407,38.873,45.067,45.000,0.00,0.10,-272.77,-272.85,-11,579,-950,23.6,43.9,10.6,23.1,56.1,13.9,5.73,1.92,7.5,28.9
2016-08-15 02:36:00,1.0,1.82485,0.00027,384.399,0.031,0.0005,0.0016,140.001,45.001,32335.77434,1.82483,384.400,38.924,45.067,45.000,0.00,0.10,-272.77,-272.84,-12,579,-950,23.7,43.2,10.4,23.2,55.7,13.8,5.73,1.81,7.6,29.0
2016-08-15 02:37:00,1.0,1.82484,0.00039,384.393,0.022,0.0005,0.0012,139.997,45.001,32332.21963,1.82486,384.395,38.953,45.067,45.000,0.00,0.10,-272.78,-272.86,-11,578,-950,23.8,43.0,10.4,23.2,55.3,13.8,5.73,1.73,7.6,29.0
2016-08-15 02:38:00,1.0,1.82486,0.00041,384.398,0.026,0.0009,0.0020,139.999,45.001,32333.62924,1.82486,384.402,39.003,45.067,45.000,0.00,0.10,-272.79,-272.85,-12,578,-950,23.8,43.4,10.6,23.3,55.1,13.7,5.73,1.96,7.6,29.1
2016-08-15 02:39:00,1.0,1.82481,0.00033,384.401,0.026,0.0002,0.0019,140.002,45.001,32334.24880,1.82482,384.403,39.063,45.067,45.000,0.00,0.10,-272.77,-272.84,-12,578,-950,23.9,42.9,10.5,23.3,54.8,13.7,5.73,1.66,7.6,29.1
2016-08-15 02:40:00,0.0,1.88935,0.02728,383.856,0.891,1.4228,0.6615,139.990,45.001,32011.13880,1.91422,390.609,39.130,45.067,45.000,0.00,0.10,-272.78,-272.86,-13,528,-950,23.9,42.7,10.5,23.4,55.0,13.8,5.73,1.91,7.6,29.1
2016-08-15 02:41:00,0.0,1.89705,0.00062,383.041,0.163,1.8111,0.0079,139.999,45.001,32005.59828,1.93298,391.904,39.190,45.067,45.000,0.00,0.10,-272.79,-272.86,-13,530,-950,24.0,42.3,10.4,23.4,54.9,13.8,5.73,1.73,7.7,29.2
2016-08-15 02:42:00,0.0,1.89660,0.00046,382.798,0.082,1.8269,0.0029,140.001,45.001,32010.26324,1.93282,391.736,39.246,45.067,45.000,0.00,0.10,-272.77,-272.84,-14,531,-950,24.0,42.5,10.4,23.5,54.7,13.8,5.73,1.91,7.7,29.2
2016-08-15 02:43:00,0.0,1.89673,0.00059,382.870,0.113,1.8331,0.0022,140.001,45.001,32012.36847,1.93305,391.841,39.295,45.067,45.000,0.00,0.10,-272.79,-272.84,-13,531,-950,24.0,42.3,10.4,23.5,54.4,13.8,5.73,1.79,7.7,29.3
2016-08-15 02:44:00,0.0,1.89689,0.00041,382.906,0.125,1.8361,0.0045,139.999,45.001,32016.37620,1.93331,391.891,39.324,45.067,45.000,0.00,0.10,-272.79,-272.85,-14,532,-950,24.1,42.3,10.5,23.6,54.2,13.8,5.73,1.83,7.8,29.3
2016-08-15 02:45:00,0.0,1.89756,0.00038,382.834,0.107,1.8357,0.0038,140.002,45.001,32020.60020,1.93398,391.816,39.354,45.067,45.000,0.00,0.10,-272.79,-272.84,-13,533,-950,24.1,42.6,10.6,23.6,53.9,13.7,5.73,1.87,7.8,29.3
2016-08-15 02:46:00,0.0,1.89760,0.00034,382.797,0.112,1.8332,0.0032,140.000,45.001,32021.31026,1.93394,391.773,39.373,45.067,45.000,0.00,0.10,-272.78,-272.84,-14,533,-950,24.1,42.7,10.6,23.6,53.6,13.6,5.73,1.74,7.8,29.3
2016-08-15 02:47:00,0.0,1.89827,0.00063,383.097,0.114,1.8205,0.0092,140.000,45.001,32024.64757,1.93440,392.004,39.386,45.067,45.000,0.00,0.10,-272.79,-272.85,-13,534,-950,24.1,42.1,10.4,23.6,53.2,13.5,5.73,1.96,7.8,29.3